Location: Raven Hill Discovery Center
(45.1336°N, 85.0553°W)
Time: 20:55:15
(UTC-04:00)

Daily predictions for brighter satellites

Satellite Brightness Start Highest point End
(mag) Time Altitude Azimuth Time Altitude Azimuth Time Altitude Azimuth
Cosmos 1190 Rocket 4.1 21:37:21 10° NNW 21:42:35 87° WSW 21:47:47 10° SSE
Cosmos 2154 Rocket 4.4 21:38:05 10° SSE 21:43:55 44° E 21:49:44 10° NNE
Cosmos 1833 Rocket 4.4 21:42:27 10° N 21:46:32 20° NE 21:50:36 10° E
Cosmos 1242 Rocket 4.3 21:44:43 10° NNE 21:47:24 19° ENE 21:50:04 10° ESE
YAOGAN 6 4.1 21:44:47 10° ESE 21:47:28 21° ENE 21:50:08 10° NNE
Cosmos 1408 3.7 21:45:32 10° SSE 21:48:38 26° E 21:51:42 10° NNE
Cosmos 2184 Rocket 4.1 21:44:11 10° S 21:50:20 87° W 21:56:35 10° N
Cosmos 2278 Rocket 2.8 21:45:46 10° SSE 21:50:49 34° ESE 21:55:54 10° NE
YAOGAN 11 4.4 21:46:21 10° S 21:50:52 75° WSW 21:55:28 10° NNW
ALOS 3.8 21:47:04 10° SSW 21:51:24 37° W 21:55:45 10° NNW
Cosmos 1825 3.1 21:49:35 10° SSE 21:52:57 31° E 21:56:22 10° NNE
SJ-11-01 4.4 21:48:58 10° SSE 21:53:43 84° WSW 21:58:30 10° NNW
Cosmos 1844 Rocket 2.7 21:48:07 10° SSW 21:53:45 73° ESE 21:59:23 10° NNE
Cosmos 1844 3.8 21:49:58 10° S 21:55:35 57° ESE 22:01:17 10° NNE
PSLV R/B 4.3 21:55:42 10° SE 21:58:14 27° ENE 22:00:48 10° N
H-2A R/B 2.0 21:56:33 10° SSE 22:00:50 72° ENE 22:05:02 10° N
CENTAUR R/B 4.2 21:54:36 10° NW 22:01:49 41° WSW 22:09:24 10° S
Cosmos 1184 Rocket 3.8 22:00:01 10° SSE 22:02:56 29° E 22:05:53 10° NNE
SL-8 R/B 3.8 21:58:13 10° WSW 22:03:04 82° NNW 22:07:54 10° ENE
Cosmos 2082 Rocket 3.3 22:03:06 10° N 22:08:13 33° NE 22:13:01 11° ESE
EO 1 Delta rocket 4.3 22:03:36 10° NNE 22:09:57 68° E 22:15:01 10° S
Cosmos 676 Rocket 4.1 22:08:00 10° NNW 22:13:14 79° WSW 22:18:27 10° SSE
Cosmos 1238 Rocket 2.5 22:11:43 10° N 22:14:55 64° E 22:18:32 10° SSE
Cosmos 1174 3.8 22:12:40 10° NW 22:15:51 49° WSW 22:18:30 12° SSE
ISS -2.9 22:12:49 10° SSW 22:15:52 38° SE 22:18:56 10° ENE
Terra 3.7 22:13:37 10° E 22:16:41 17° ENE 22:19:45 10° NNE
Cosmos 1954 Rocket 4.0 22:12:43 10° NNW 22:17:57 89° ENE 22:23:04 11° SSE
Cosmos 1862 3.3 22:16:46 10° S 22:20:49 79° E 22:24:55 10° N
SPOT 5 3.1 22:16:10 10° SSE 22:21:27 83° ENE 22:26:52 10° NNW
USA 229 DEB 4.3 22:16:24 10° NNW 22:23:17 50° NE 22:29:26 13° ESE
USA 229 4.3 22:16:30 10° NNW 22:23:23 49° NE 22:29:32 13° ESE
COS B Rocket 3.3 22:20:46 10° N 22:24:55 84° W 22:28:38 10° S
Cosmos 2297 4.4 22:20:50 10° SSE 22:25:54 34° ESE 22:31:01 10° NE
Okean 3 3.4 22:24:07 10° N 22:28:26 87° ENE 22:32:25 12° S
Okean 2 Rocket 3.2 22:25:45 10° S 22:30:05 57° E 22:34:25 10° NNE
Cosmos 1741 Rocket 4.2 22:26:12 10° NNW 22:31:24 59° ENE 22:35:15 18° SE
Cosmos 1606 3.7 22:29:23 10° NNW 22:33:11 47° W 22:36:57 10° SSW
NOAA 11 4.4 22:30:26 16° SE 22:34:47 56° ENE 22:40:11 10° N
Gbstr 26 Del rocket 4.3 22:30:20 10° WNW 22:35:33 43° N 22:39:50 10° E
Nadezhda 3 Rocket 4.3 22:29:21 10° NNW 22:35:42 71° W 22:42:01 10° S
Meteor 1-27 Rocket 4.3 22:31:37 10° NNW 22:37:04 56° W 22:42:26 10° S
Cosmos 2218 Rocket 4.4 22:33:58 13° SSE 22:39:27 47° E 22:45:32 10° NNE
Cosmos 1023 Rocket 4.5 22:36:17 10° NNW 22:41:24 84° WSW 22:45:23 17° SSE
Cosmos 1782 Rocket 3.6 22:39:12 10° S 22:43:39 85° W 22:48:10 10° N
BREEZE-M DEB (TANK) 3.7 22:32:15 10° WNW 22:45:41 69° SW 22:48:20 22° SE
CZ-4C R/B 4.3 22:43:58 22° ESE 22:45:53 34° ENE 22:49:37 10° N
Meteor 2-13 Rocket 4.4 22:41:09 10° S 22:47:18 79° E 22:53:29 10° N
BREEZE-M DEB (TANK) 2.8 22:47:34 10° WNW 22:49:29 36° N 22:52:22 10° ENE
COSMOS 2487 3.5 22:46:11 10° NNW 22:49:37 41° WSW 22:52:14 15° S
MetOp-B 4.4 22:46:20 12° S 22:51:15 67° WSW 22:56:37 10° NNW
Envisat 4.2 22:47:26 10° SSW 22:52:08 38° W 22:56:53 10° NNW
Cosmos 1727 Rocket 4.3 22:46:12 10° N 22:52:11 50° ENE 22:56:01 22° SE
APEX 3.5 22:51:46 10° SSW 22:55:41 66° ESE 23:00:52 10° NNE
DNEPR-1 R/B 4.0 22:50:17 10° NW 22:55:45 68° WSW 22:58:32 24° SSE
Cosmos 1975 Rocket 3.6 22:52:35 10° NNW 22:56:50 55° W 23:00:24 14° S
CARTOSAT-1 4.3 22:58:42 26° ESE 23:00:33 39° ENE 23:04:35 10° N
Cosmos 2341 Rocket 4.5 22:56:32 10° SSW 23:02:46 62° WNW 23:08:58 10° N
Cosmos 1420 Rocket 4.0 22:58:51 10° SSW 23:04:06 83° WNW 23:09:22 10° NNE
Cosmos 614 Rocket 4.0 23:00:31 10° NNW 23:05:37 79° WSW 23:08:38 25° SSE
Cosmos 2084 4.3 23:05:06 10° WSW 23:08:48 45° NW 23:12:31 10° NNE
ARGOS 3.2 23:05:13 20° S 23:08:58 76° WSW 23:14:21 10° NNW
Cosmos 1536 Rocket 3.6 23:05:15 10° N 23:09:43 65° E 23:11:41 32° SSE
CZ-4 R/B 3.7 23:07:06 10° NNE 23:11:48 74° ESE 23:14:47 22° S
Meteor 2-8 Rocket 4.5 23:05:58 10° N 23:12:07 70° E 23:15:43 26° SSE
Timation 2 Rocket 4.3 23:09:41 10° NW 23:15:32 55° WSW 23:19:21 21° S
Cosmos 1140 Rocket 4.4 23:10:45 10° NW 23:15:35 42° WSW 23:19:07 17° SSW
H-2A R/B 2.2 23:13:15 28° SSE 23:16:04 68° ENE 23:21:21 10° N
SL-8 Rocket 4.1 23:10:16 10° SSW 23:16:33 79° W 23:22:49 10° N
YAOGAN 6 4.4 23:18:37 14° SSW 23:20:55 26° W 23:23:56 10° NW
Okean 1 3.8 23:17:43 10° N 23:21:40 46° ENE 23:22:36 39° ESE
Cosmos 1242 Rocket 4.2 23:19:16 10° NNW 23:22:30 30° W 23:24:43 16° SW
USA 245 4.5 23:21:42 20° SSW 23:23:28 34° W 23:27:14 10° NNW
USA 234 3.6 23:18:13 10° ENE 23:24:20 41° SE 23:30:23 10° SSW
CZ-4B R/B 3.8 23:21:39 10° N 23:26:35 63° WNW 23:31:08 11° SSW
Meteor 1-25 Rocket 4.2 23:23:30 25° S 23:26:58 71° E 23:32:46 10° NNE
Cosmos 1833 Rocket 2.7 23:25:31 10° NNW 23:31:10 80° WSW 23:33:42 34° SSE
Cosmos 2278 Rocket 3.6 23:29:30 10° SW 23:34:49 40° NW 23:40:10 10° NNE
Cosmos 2151 Rocket 3.9 23:33:24 23° SSW 23:36:06 66° W 23:40:38 10° N
Landsat 7 4.1 23:36:06 32° S 23:38:12 64° WSW 23:42:57 10° NNW
Meteor 1-18 Rocket 4.5 23:34:43 10° NNW 23:40:36 71° W 23:43:43 29° S
SL-8 R/B 4.3 23:41:11 10° WNW 23:45:56 57° N 23:50:07 13° E
Cosmos 1025 Rocket 4.0 23:44:07 10° N 23:48:08 34° ENE 23:48:39 33° E
IGS 5A 3.5 23:47:10 51° S 23:48:08 76° WSW 23:52:19 10° NNW
Cosmos 1812 2.9 23:46:59 10° NNW 23:50:50 66° W 23:51:28 54° SSW
NOSS 8 (F) 4.5 23:50:42 61° SW 23:51:16 84° NW 23:55:05 10° NE
ISS -2.0 23:49:11 10° W 23:52:18 41° NNW 23:55:26 10° NE
Cosmos 2082 Rocket 2.9 23:47:04 10° NW 23:52:26 44° WSW 23:54:52 28° SSW
Terra 2.0 23:52:21 40° SSW 23:53:56 63° WSW 23:58:41 10° NNW
SAR-Lupe-2 3.4 23:54:25 85° S 23:54:30 88° W 23:58:05 10° NNW
